Dewpoint
-5 -4 -5 -4 -4 -3 -5 -6 -9 -6 -2 -2 -3 -3 -4 -4 -4 -3 -4 -4 -7 -7 -6 -3 -3 -4 -2 -1 -1 -3 -2 -2 -2 -0 -3 -6 -5 -5 -5 -3 -3 -5 -5 -4 -5
-7 -4 -4 -4 -4 -4 -5 -6 -9 -5 -2 -2 -3 -4 -4 -5 -5 -4 -4 -5 -6 -6 -6 -5 -7 -6 -4 -2 -1 -2 -0 -4 -8 -8 -5 -5 -5 -4 -4 -5 -6 -7 -7 -7 -7
-8 -7 -4 -4 -3 -5 -5 -6 -8 -4 -2 -2 -3 -4 -4 -5 -5 -5 -4 -5 -5 -6 -7 -6 -6 -6 -5 -3 -2 -2 0 -2 -3 -6 -5 -4 -3 -4 -5 -3 -7 -6 -7 -7 -7
-8 -8 -7 -4 -4 -5 -5 -6 -9 -3 -2 -2 -3 -4 -4 -5 -4 -4 -4 -4 -5 -6 -6 -6 -7 -7 -6 -5 -4 -2 -3 -2 -3 -4 -3 -3 -4 -5 -5 -6 -6 -6 -7 -7 -7
-8 -6 -5 -4 -4 -5 -6 -7 -9 -2 -2 -3 -3 -4 -4 -4 -5 -4 -3 -4 -5 -6 -5 -6 -6 -7 -6 -6 -5 -4 -5 -6 -5 -5 -5 -5 -4 -5 -5 -7 -7 -7 -7 -7 -7
-7 -5 -5 -5 -4 -5 -7 -8 -9 -2 -3 -3 -3 -4 -4 -4 -4 -4 -3 -5 -5 -6 -5 -5 -6 -5 -5 -5 -5 -7 -6 -5 -6 -6 -7 -6 -6 -6 -7 -7 -8 -7 -7 -6 -6
-6 -6 -6 -5 -5 -6 -8 -9 -8 -2 -3 -3 -4 -4 -4 -4 -3 -4 -4 -5 -5 -5 -4 -5 -5 -5 -6 -6 -6 -5 -5 -6 -7 -6 -6 -6 -9 -5 -7 -8 -7 -6 -5 -5 -5
-5 -6 -6 -6 -6 -7 -9 -10 -3 -2 -3 -3 -4 -4 -4 -4 -4 -4 -4 -4 -4 -4 -5 -5 -6 -5 -5 -5 -6 -6 -6 -4 -8 -8 -5 -6 -5 -9 -7 -8 -7 -6 -5 -5 -5
-6 -6 -6 -7 -8 -10 -11 -8 -1 -2 -3 -3 -3 -4 -4 -4 -4 -4 -4 -4 -4 -4 -5 -5 -5 -5 -4 -5 -5 -5 -4 -5 -5 -8 -8 -7 -5 -8 -7 -7 -7 -6 -5 -5 -6
-8 -8 -9 -10 -11 -11 -8 -1 -2 -3 -3 -3 -3 -4 -4 -4 -4 -4 -4 -4 -4 -4 -4 -4 -5 -4 -4 -4 -6 -5 -5 -5 -5 -8 -7 -6 -5 -6 -7 -7 -6 -6 -6 -6 -7
-9 -11 -10 -9 -9 -7 -1 -1 -2 -2 -2 -4 -3 -4 -6 -4 -5 -5 -4 -4 -4 -4 -4 -5 -4 -3 -5 -4 -6 -5 -4 -4 -6 -8 -6 -5 -5 -5 -7 -7 -6 -6 -7 -7 -7
-6 -8 -8 -8 -6 -2 -1 -2 -4 -3 -3 -4 -4 -4 -5 -5 -5 -5 -4 -4 -4 -3 -5 -5 -3 -5 -6 -5 -4 -4 -5 -5 -6 -8 -5 -5 -4 -6 -7 -6 -6 -6 -7 -7 -5
-6 -8 -8 -6 -3 -2 -2 -3 -4 -2 -2 -4 -4 -4 -4 -5 -5 -5 -4 -5 -5 -4 -5 -5 -7 -5 -5 -4 -4 -5 -5 -6 -6 -6 -6 -4 -4 -5 -6 -6 -5 -6 -6 -6 -5
-5 -7 -7 -4 -3 -3 -3 -3 -4 -2 -5 -7 -4 -3 -3 -4 -5 -6 -5 -6 -6 -5 -5 -4 -6 -5 -5 -5 -6 -5 -7 -6 -5 -4 -4 -5 -3 -5 -5 -5 -5 -6 -6 -5 -4
-4 -7 -6 -4 -3 -4 -4 -5 -3 -3 -2 -8 -4 -4 -4 -4 -5 -5 -5 -6 -5 -6 -6 -6 -6 -6 -6 -6 -7 -5 -6 -5 -5 -3 -2 -3 -2 -4 -6 -4 -4 -5 -6 -5 -4
-4 -6 -4 -3 -2 -4 -3 -4 -3 -6 -1 -3 -5 -4 -4 -5 -5 -5 -5 -6 -6 -6 -6 -6 -7 -7 -7 -6 -7 -5 -5 -5 -2 -2 -1 -3 -2 -3 -4 -5 -5 -5 -6 -5 -4
-4 -5 -4 -3 -2 0 -0 -2 -3 -3 -7 -3 -3 -4 -4 -4 -4 -5 -5 -4 -3 -2 -3 -5 -4 -6 -6 -5 -5 -6 -5 -4 -6 -2 -2 -3 -2 -3 -7 -8 -6 -5 -6 -5 -4
-3 -3 -3 -2 -2 1 -1 -3 -2 -6 -5 -4 -4 -4 -3 -4 -4 -4 -4 -3 -5 -5 -3 -2 -5 -4 -6 -6 -4 -4 -6 -4 -6 -5 -5 -5 -1 -5 -7 -5 -7 -6 -6 -5 -4
-1 -1 -2 -2 -1 2 -2 -0 -2 -4 -6 -2 -4 -3 -3 -4 -4 -3 -4 -4 -5 -5 -4 -2 -3 -5 -6 -6 -6 -5 -3 -7 -3 -3 -2 -3 -5 -7 -5 -5 -5 -5 -5 -4 -4
-1 -1 -2 -2 0 2 -1 1 -2 -6 -4 -4 -2 -4 -3 -2 -3 -3 -3 -4 -4 -5 -6 -5 -3 -5 -5 -6 -6 -5 -6 -2 -3 -3 -2 -3 -3 -3 -3 -4 -4 -4 -5 -4 -4
1 -1 -2 -2 2 1 2 0 -2 -4 -4 -3 -2 -3 -3 -2 -3 -2 -3 -5 -5 -4 -6 -6 -5 -5 -5 -4 -3 -4 -3 -4 -4 -3 -2 -2 -2 -6 -4 -4 -4 -5 -5 -4 -2
-0 -0 1 -0 2 1 1 -1 -3 -4 -4 -4 -4 -4 -3 -3 -2 -3 -3 -5 -5 -5 -3 -6 -5 -3 -4 -6 -7 -6 -5 -5 -2 -2 -2 -3 -2 -7 -6 -5 -5 -5 -4 -2 -2
-0 5 3 3 3 2 -0 -1 -2 -4 -5 -5 -3 -4 -5 -4 -4 -3 -4 -4 -5 -5 -4 -5 -4 -3 -5 -6 -6 -4 -5 -5 -5 -4 -2 -1 -2 -6 -6 -5 -5 -4 -3 -2 -2
1 6 5 3 1 0 0 -0 -0 -3 -4 -5 -5 -4 -3 -4 -5 -5 -4 -3 -3 -4 -5 -6 -4 -5 -4 -7 -5 -4 -4 -4 -4 -2 -2 -2 -4 -5 -4 -3 -5 -4 -3 -1 -4
3 3 5 5 4 -0 -1 -0 0 -1 -2 -3 -3 -3 -4 -3 -3 -3 -3 -2 -2 -1 -4 -5 -3 -4 -4 -6 -4 -4 -3 -4 -3 -3 -2 -4 -3 -5 -5 -4 -5 -4 -2 -3 -4
2 3 4 4 2 0 1 -0 0 -1 -1 -1 -2 -2 -3 -3 -4 -3 -3 -2 -2 -2 -3 -3 -1 -2 -1 -1 -3 -1 -1 -1 -3 -4 -3 -3 -2 -5 -6 -5 -3 -2 -3 -4 -4
3 2 2 3 3 2 2 -0 0 -2 -2 -3 -2 -1 -1 -2 -4 -5 -4 -4 -3 -2 -2 -2 0 0 1 1 0 2 1 1 0 -1 -1 1 -1 -2 -1 -1 -2 -3 -4 -4 -3
Wind_Speed
15 15 11 11 11 10 10 9 8 8 6 5 5 4 4 4 4 5 4 3 3 3 3 3 2 0 1 2 3 3 3 2 4 4 3 2 2 4 7 7 8 11 15 16 19
17 18 12 12 11 11 11 10 9 9 7 5 5 4 4 4 5 7 5 4 3 2 2 1 1 0 1 2 1 3 2 6 4 4 4 4 6 9 4 9 11 13 12 13 14
16 15 12 12 11 13 11 11 10 10 7 5 4 3 3 3 3 5 8 6 3 1 1 1 1 1 2 2 3 3 4 4 5 10 8 7 7 4 3 5 9 11 15 12 13
15 16 17 14 13 15 12 12 11 10 8 6 4 3 4 2 5 4 8 10 5 2 1 1 1 0 2 2 3 1 7 6 3 2 3 4 5 5 11 7 16 15 10 15 16
15 15 16 16 14 15 13 12 12 11 8 6 5 4 4 5 5 2 6 10 7 4 1 1 2 1 2 3 2 3 3 6 10 9 10 12 12 8 11 8 8 12 13 14 15
17 14 17 15 15 15 14 12 12 12 9 7 5 4 4 4 5 4 6 9 5 5 2 2 2 3 2 3 4 3 6 13 10 6 6 4 2 2 1 10 10 10 13 12 13
18 16 16 17 17 16 14 13 14 12 9 7 6 6 7 8 6 7 10 8 5 5 4 4 4 4 1 1 3 3 5 6 1 2 1 1 0 4 2 12 9 15 17 18 18
17 16 18 18 17 14 13 13 14 12 9 7 5 6 7 7 11 9 8 8 7 6 4 3 2 3 2 1 3 2 3 3 1 3 1 1 5 2 2 14 7 12 17 21 25
16 16 18 17 15 13 13 14 13 11 9 7 6 6 6 8 14 12 11 11 8 5 4 3 2 2 2 3 3 4 1 1 6 5 1 1 6 3 10 9 5 11 15 20 25
16 16 17 16 13 13 14 13 11 10 8 6 7 4 12 7 10 10 13 11 7 7 3 2 2 3 2 2 3 2 1 3 4 2 2 2 8 8 10 8 9 11 14 19 25
16 16 16 15 14 15 15 11 6 5 13 10 7 6 2 9 7 7 11 12 8 5 3 2 3 6 7 6 3 3 3 3 4 3 2 1 4 7 4 15 11 11 15 19 24
18 18 16 14 15 16 16 11 9 3 5 21 20 16 7 8 6 9 11 10 7 4 4 3 5 7 3 4 3 2 3 4 4 2 1 3 4 2 3 4 6 9 13 17 21
18 17 16 16 16 18 19 18 5 6 3 6 20 24 20 15 6 12 16 9 4 5 5 5 2 6 3 2 3 4 5 3 4 3 2 4 2 1 2 4 6 8 12 15 18
19 18 18 17 15 15 18 14 9 5 2 5 5 5 12 13 5 10 17 7 2 8 6 4 1 4 3 4 7 4 4 4 2 2 2 2 2 3 3 3 3 7 10 13 15
19 19 20 19 7 19 12 13 11 5 2 2 4 5 11 10 11 4 15 6 8 6 6 5 4 3 2 4 6 3 2 3 2 2 2 1 1 2 1 5 5 7 10 11 12
21 21 22 22 12 14 12 15 13 4 6 2 4 5 5 2 2 6 4 5 5 4 2 5 2 3 3 2 2 6 4 5 3 2 1 1 2 2 5 5 4 7 10 11 10
22 22 23 22 13 15 19 20 4 4 2 4 4 4 3 4 3 3 4 4 5 4 4 1 3 1 3 3 1 2 4 3 2 1 3 2 0 5 3 4 7 13 14 11 9
22 24 24 21 15 19 23 4 4 3 5 2 3 3 5 5 2 3 5 3 3 4 3 5 3 5 2 3 5 3 4 4 3 2 2 2 5 2 4 8 10 12 13 11 9
21 22 23 22 17 21 17 3 7 6 4 7 2 3 2 2 4 3 6 5 7 10 7 5 3 1 2 1 2 3 2 3 5 2 1 2 5 4 2 3 13 14 12 9 8
21 21 22 22 19 20 3 5 4 4 3 3 5 3 5 5 4 4 7 3 4 10 3 5 3 1 2 3 5 1 5 3 2 2 3 2 4 4 4 6 5 8 10 7 8
21 12 18 23 19 12 5 6 6 7 4 5 5 4 3 6 6 5 5 2 4 5 3 5 3 1 2 5 7 2 1 5 3 3 3 2 4 5 10 7 8 10 7 10 11
18 3 20 28 7 2 5 6 6 4 5 2 4 3 6 5 4 4 6 4 8 10 8 5 4 4 4 2 3 3 4 5 4 4 1 1 6 3 7 13 13 9 9 12 8
14 6 20 31 6 3 2 3 3 3 4 5 5 3 3 6 3 4 4 1 6 6 7 6 0 2 4 2 1 4 4 3 4 3 6 4 5 2 8 10 8 9 12 11 6
11 3 5 13 2 8 6 4 4 5 2 3 3 4 3 3 3 4 4 2 3 4 2 7 3 6 6 4 4 4 5 5 5 3 4 8 8 5 7 8 10 7 12 10 5
10 5 9 5 4 3 7 8 6 6 4 6 1 4 6 5 3 4 3 2 1 4 2 4 5 4 4 2 4 4 5 8 8 7 9 19 12 10 13 14 19 10 14 10 5
10 5 6 6 18 7 6 8 10 5 8 5 5 9 7 7 9 8 6 4 6 1 4 1 3 3 2 2 4 5 9 8 11 10 8 10 20 7 8 12 14 19 14 7 3
17 10 7 7 5 11 7 6 7 8 8 9 11 6 5 11 17 10 9 4 5 8 7 5 5 3 4 1 1 6 9 13 4 4 6 7 8 5 5 12 20 16 11 4 3
Wind_Direction
255 246 249 243 245 243 253 254 244 218 223 239 255 267 270 266 240 218 215 155 127 102 108 121 139 22 45 97 91 108 77 188 236 172 256 265 338 300 283 253 261 264 262 287 296
249 252 234 236 237 245 250 252 239 215 222 235 255 262 273 280 239 230 201 183 145 108 117 87 104 16 144 134 89 87 122 218 206 196 230 265 263 295 275 280 278 277 292 302 300
230 248 254 239 248 251 248 252 234 218 215 228 251 259 265 280 242 226 213 200 170 119 72 50 11 355 129 165 178 164 202 206 243 242 276 290 293 274 265 288 294 313 319 316 314
253 242 247 245 240 245 248 247 233 218 219 218 242 258 253 212 183 192 205 205 204 176 95 22 14 333 128 210 194 153 248 230 277 273 270 255 285 276 243 276 313 311 314 313 314
244 238 239 242 237 244 243 244 230 217 220 223 236 249 243 225 225 227 200 192 191 191 231 308 298 197 200 213 197 190 257 255 263 274 277 273 276 265 288 333 355 322 323 324 319
248 237 237 237 242 244 244 239 227 218 220 222 237 250 228 228 213 205 171 174 189 202 267 286 262 262 247 221 192 227 266 282 283 241 251 230 204 293 41 359 3 17 12 14 1
232 233 244 240 239 236 236 230 219 219 220 221 232 246 240 231 204 193 185 194 206 227 256 276 275 225 183 237 263 281 318 321 342 67 92 278 101 197 48 7 39 49 47 44 40
223 222 232 235 237 231 228 223 211 216 218 225 231 241 247 229 217 202 194 205 217 242 249 252 225 214 202 242 351 30 52 10 320 354 84 110 274 219 33 360 52 55 56 53 52
220 225 230 228 228 223 214 208 211 216 219 221 227 215 248 222 217 214 215 221 217 218 208 204 193 162 142 96 356 18 246 281 321 23 39 359 275 255 325 318 95 69 62 60 62
216 221 222 222 213 209 196 200 210 222 223 213 214 211 237 213 207 208 210 201 186 187 174 219 120 78 50 109 241 210 277 245 247 258 11 230 272 307 321 188 128 90 74 64 62
215 215 215 208 197 194 188 190 188 222 211 206 214 200 125 193 170 179 190 183 180 163 152 42 81 222 217 198 166 130 188 243 260 268 301 165 282 322 31 127 117 95 81 77 72
211 206 207 196 192 192 194 194 195 175 242 229 238 221 213 184 172 179 178 170 162 164 124 33 240 248 178 153 159 174 211 259 286 273 15 359 321 318 85 113 119 99 91 90 88
210 204 198 192 194 200 205 202 203 220 261 240 227 233 224 214 198 190 185 176 140 137 177 178 238 119 130 139 172 224 200 206 230 332 77 318 356 148 82 118 124 100 100 97 92
204 200 193 189 199 205 217 204 209 204 27 257 212 217 202 200 223 201 192 169 127 184 148 232 267 217 193 229 156 245 198 149 133 44 274 19 275 267 203 166 166 119 115 113 107
205 195 192 188 194 198 199 194 184 163 293 180 164 158 166 173 139 153 183 183 158 166 124 254 181 185 187 215 175 213 135 104 98 118 21 322 149 230 93 218 203 172 146 131 120
198 195 190 191 199 185 178 169 159 62 248 183 144 168 124 95 99 117 147 140 129 111 35 230 260 183 210 88 173 147 82 54 65 110 15 269 181 239 185 199 192 178 166 153 142
194 193 194 193 198 177 160 151 81 174 357 196 183 162 120 151 109 117 149 144 147 118 222 232 225 248 162 135 35 93 65 331 351 14 213 76 42 251 213 216 196 180 176 171 165
192 192 192 192 188 173 170 79 166 217 201 107 119 96 159 156 166 127 110 174 226 124 131 171 277 176 175 194 182 166 164 155 253 237 271 1 233 234 233 263 215 179 173 178 184
191 191 193 190 187 179 177 120 204 202 178 151 96 116 213 169 133 122 177 201 206 177 176 154 235 87 67 127 130 173 166 155 106 51 358 241 283 309 26 80 146 162 169 179 186
187 186 196 188 186 181 123 217 216 198 163 147 166 142 171 189 147 160 170 204 230 194 165 198 120 355 162 115 41 169 147 95 21 205 266 277 275 234 193 184 180 184 176 168 159
180 171 189 186 180 183 184 219 218 216 180 150 186 136 175 173 170 184 189 241 209 167 171 145 109 207 124 198 179 119 195 53 115 136 200 292 261 209 193 187 184 182 172 158 142
175 151 173 172 153 141 167 192 193 191 176 191 118 126 174 157 162 211 208 232 184 154 168 192 130 175 191 159 165 167 172 155 139 205 117 137 268 202 193 179 178 181 173 156 150
165 117 169 175 179 187 232 260 195 153 186 172 182 169 177 169 160 205 200 294 180 159 163 188 167 72 343 14 8 210 188 139 103 93 190 161 255 69 174 173 172 186 180 171 162
163 124 142 202 190 148 143 194 194 214 162 148 142 120 126 160 238 180 219 186 173 197 184 137 146 166 195 198 136 183 190 179 143 155 173 225 247 196 217 208 199 189 182 177 187
190 188 173 178 203 178 177 177 169 197 209 198 31 193 169 171 155 211 203 142 94 164 107 138 206 179 244 185 164 202 204 174 196 210 204 263 222 226 215 214 212 217 176 177 180
173 158 150 154 167 135 173 202 183 175 155 216 186 216 185 169 185 203 157 189 205 136 157 23 192 149 278 95 195 252 245 218 223 244 255 275 274 206 230 188 170 170 173 172 183
203 167 159 151 127 179 205 190 186 152 214 204 199 138 164 225 225 219 191 175 179 160 172 149 138 120 253 19 331 285 234 220 212 194 187 229 260 185 175 166 163 168 169 180 200
Height
1534 1537 1536 1538 1540 1541 1543 1543 1543 1544 1545 1546 1547 1547 1547 1547 1547 1548 1548 1549 1549 1549 1550 1550 1551 1551 1552 1553 1553 1553 1561 1567 1564 1566 1558 1555 1554 1553 1552 1551 1550 1549 1547 1547 1545
1532 1533 1535 1535 1537 1539 1541 1542 1542 1543 1544 1545 1546 1546 1546 1546 1546 1547 1548 1548 1549 1549 1550 1550 1551 1551 1552 1552 1554 1555 1563 1561 1556 1555 1556 1554 1554 1551 1551 1549 1546 1546 1545 1544 1542
1530 1530 1529 1532 1535 1538 1539 1540 1541 1542 1542 1544 1544 1545 1545 1545 1546 1545 1546 1548 1549 1549 1550 1550 1551 1552 1552 1552 1553 1555 1558 1553 1551 1551 1553 1553 1552 1551 1549 1545 1544 1544 1542 1540 1539
1526 1529 1528 1531 1535 1537 1537 1538 1539 1540 1542 1542 1543 1543 1544 1544 1549 1543 1544 1546 1548 1549 1550 1550 1551 1552 1552 1553 1553 1555 1552 1552 1551 1551 1550 1550 1549 1548 1547 1546 1544 1542 1540 1538 1536
1523 1526 1528 1530 1533 1534 1535 1536 1537 1538 1540 1541 1542 1542 1543 1543 1542 1542 1542 1544 1547 1548 1549 1549 1550 1551 1552 1552 1553 1552 1549 1549 1548 1548 1548 1548 1548 1549 1545 1545 1543 1540 1538 1535 1533
1519 1522 1525 1528 1529 1531 1532 1533 1536 1537 1539 1540 1541 1541 1542 1542 1540 1541 1542 1544 1545 1547 1548 1549 1549 1550 1550 1551 1552 1550 1549 1547 1545 1543 1543 1544 1544 1546 1545 1544 1541 1539 1536 1534 1530
1518 1520 1522 1526 1527 1528 1530 1531 1534 1536 1537 1538 1539 1539 1540 1539 1539 1540 1541 1543 1544 1545 1546 1547 1548 1549 1550 1550 1550 1549 1550 1546 1545 1544 1543 1543 1542 1543 1543 1542 1541 1539 1537 1534 1530
1514 1517 1521 1523 1525 1525 1527 1531 1533 1535 1536 1536 1537 1537 1537 1536 1537 1539 1540 1541 1543 1544 1545 1546 1546 1548 1549 1550 1550 1551 1553 1554 1545 1544 1544 1542 1548 1541 1540 1540 1541 1541 1539 1535 1531
1510 1513 1517 1519 1521 1523 1526 1530 1532 1533 1534 1534 1535 1536 1534 1533 1534 1536 1537 1539 1541 1543 1544 1545 1546 1547 1548 1551 1556 1555 1556 1556 1551 1546 1545 1544 1543 1539 1539 1540 1541 1541 1540 1537 1534
1507 1511 1514 1516 1518 1521 1524 1528 1530 1531 1532 1532 1534 1536 1532 1530 1531 1532 1534 1536 1539 1541 1544 1545 1546 1548 1551 1552 1561 1556 1557 1555 1554 1546 1544 1545 1544 1540 1537 1537 1539 1541 1541 1539 1535
1503 1507 1511 1514 1514 1520 1522 1527 1531 1531 1528 1526 1525 1525 1525 1528 1529 1530 1532 1534 1537 1540 1544 1545 1550 1552 1545 1547 1547 1550 1554 1556 1552 1545 1545 1544 1544 1541 1538 1536 1539 1541 1541 1539 1537
1503 1506 1510 1510 1514 1518 1520 1522 1522 1524 1524 1522 1523 1524 1526 1527 1527 1528 1532 1534 1535 1540 1543 1549 1552 1542 1542 1545 1547 1551 1553 1553 1548 1548 1547 1547 1541 1541 1539 1539 1540 1540 1541 1540 1539
1499 1502 1506 1509 1513 1514 1516 1518 1520 1522 1523 1518 1517 1517 1521 1526 1524 1525 1530 1530 1533 1539 1542 1547 1542 1541 1541 1545 1549 1550 1550 1548 1549 1547 1548 1550 1543 1540 1540 1540 1541 1541 1541 1540 1539
1497 1501 1505 1507 1511 1510 1512 1516 1519 1522 1527 1517 1514 1513 1517 1520 1522 1523 1526 1528 1532 1535 1541 1544 1540 1541 1541 1545 1547 1549 1543 1542 1545 1550 1550 1550 1547 1543 1541 1541 1540 1541 1541 1541 1540
1493 1497 1502 1505 1505 1508 1511 1515 1518 1521 1540 1513 1512 1512 1514 1516 1518 1520 1523 1525 1529 1531 1535 1540 1538 1539 1539 1538 1540 1542 1540 1543 1546 1554 1554 1552 1552 1539 1542 1543 1539 1540 1540 1540 1540
1490 1495 1498 1502 1504 1507 1509 1512 1519 1530 1535 1513 1509 1511 1513 1514 1517 1519 1522 1525 1526 1530 1533 1536 1535 1533 1534 1536 1537 1540 1543 1549 1555 1556 1555 1551 1552 1538 1539 1536 1537 1538 1539 1540 1541
1486 1491 1495 1499 1503 1505 1508 1513 1527 1532 1509 1512 1511 1509 1510 1516 1517 1518 1522 1525 1529 1540 1540 1536 1534 1532 1532 1536 1538 1539 1545 1552 1549 1552 1549 1554 1554 1533 1531 1532 1531 1533 1536 1539 1540
1485 1488 1492 1497 1501 1504 1508 1511 1523 1510 1510 1506 1507 1510 1513 1514 1516 1517 1522 1529 1526 1528 1541 1540 1540 1533 1531 1533 1537 1540 1542 1550 1549 1554 1553 1556 1548 1529 1530 1528 1529 1531 1534 1536 1538
1482 1486 1490 1494 1498 1502 1504 1516 1511 1506 1501 1505 1506 1510 1512 1511 1515 1516 1522 1526 1521 1522 1532 1538 1534 1531 1531 1531 1534 1540 1544 1544 1558 1566 1561 1549 1540 1529 1528 1529 1528 1529 1532 1534 1535
1478 1483 1486 1491 1495 1499 1503 1507 1501 1498 1498 1501 1505 1506 1515 1514 1516 1519 1523 1514 1516 1515 1516 1522 1533 1531 1532 1533 1535 1535 1540 1546 1553 1550 1553 1547 1549 1531 1530 1530 1529 1530 1531 1531 1533
1477 1481 1483 1489 1494 1498 1503 1504 1499 1495 1496 1499 1503 1506 1508 1512 1516 1519 1516 1511 1513 1516 1516 1520 1524 1535 1533 1533 1535 1541 1541 1548 1548 1553 1548 1552 1535 1524 1523 1525 1527 1526 1528 1529 1532
1473 1477 1479 1484 1493 1496 1500 1494 1491 1492 1494 1495 1496 1499 1506 1509 1515 1516 1513 1512 1509 1512 1517 1517 1526 1535 1530 1530 1530 1531 1534 1538 1541 1549 1560 1559 1539 1518 1519 1521 1523 1525 1527 1528 1530
1468 1473 1477 1481 1487 1493 1492 1491 1490 1491 1493 1494 1496 1497 1500 1506 1509 1512 1510 1508 1508 1509 1513 1515 1528 1537 1532 1534 1531 1530 1532 1536 1541 1544 1552 1548 1526 1518 1519 1520 1521 1523 1525 1526 1527
1465 1472 1477 1479 1479 1480 1486 1489 1490 1490 1491 1492 1494 1496 1499 1502 1506 1509 1508 1507 1508 1508 1509 1510 1523 1522 1530 1520 1522 1527 1527 1532 1531 1542 1537 1530 1512 1517 1519 1518 1518 1520 1521 1524 1525
1458 1459 1461 1473 1477 1478 1479 1481 1487 1490 1490 1491 1496 1495 1498 1505 1506 1507 1505 1507 1508 1508 1509 1511 1518 1522 1519 1517 1519 1518 1517 1526 1529 1521 1520 1500 1514 1507 1509 1508 1512 1516 1519 1521 1523
1452 1455 1459 1462 1465 1477 1478 1481 1482 1486 1487 1491 1494 1492 1495 1500 1499 1505 1504 1506 1504 1508 1509 1512 1517 1518 1518 1520 1520 1520 1516 1517 1518 1513 1517 1514 1505 1502 1502 1503 1507 1511 1515 1518 1519
1447 1450 1452 1462 1465 1472 1472 1474 1476 1480 1483 1483 1485 1490 1494 1490 1489 1492 1495 1496 1498 1502 1508 1513 1518 1522 1523 1522 1520 1521 1506 1504 1505 1507 1505 1510 1498 1499 1502 1503 1505 1509 1513 1515 1515